Tracking 28520 objects as of 29-Feb-2024
HD Live streaming from Space Station
objects crossing your sky now

ONEWEB-0675

Track ONEWEB-0675 now!
10-day predictions
ONEWEB-0675 is classified as:


NORAD ID: 55834
Int'l Code: 2023-029AQ
Perigee: 1,191.7 km
Apogee: 1,194.1 km
Inclination: 87.9 °
Period: 109.1 minutes
Semi major axis: 7563 km
RCS: Unknown
Launch date: March 9, 2023
Source: United Kingdom (UK)
Launch site: AIR FORCE EASTERN TEST RANGE (AFETR)
Your satellite tracking list
Your tracking list is empty




NASA's NSSDC Master Catalog

Two Line Element Set (TLE):
1 55834U 23029AQ  24059.83952511  .00000079  00000-0  16601-3 0  9998
2 55834  87.9148 112.0588 0001536 100.5284 259.6022 13.19725253 48213
Source of the keplerian elements: AFSPC